This is the latest recevied weather packets stored in our database for station/object KM4CBK. If no packets are shown the sender has not sent any weather packets the latest 10 day(s).
| Time | Temp. | Humidity | Pressure | Rain* | Wind** | Luminosity | Snow |
|---|---|---|---|---|---|---|---|
| 1777846683 | 22.22° C | 41% | 1016.4 hPa | 0 mm | - | 106 W/m² | - |
| 1777846381 | 22.22° C | 39% | 1016.5 hPa | 0 mm | - | 193 W/m² | - |
| 1777846077 | 22.22° C | 42% | 1016.4 hPa | 0 mm | - | 38 W/m² | - |
| 1777845774 | 21.67° C | 40% | 1016.5 hPa | 0 mm | - | 37 W/m² | - |
| 1777845471 | 22.22° C | 40% | 1016.5 hPa | 0 mm | - | 154 W/m² | - |
| 1777845168 | 22.22° C | 42% | 1016.5 hPa | 0 mm | - | 39 W/m² | - |
| 1777844866 | 22.22° C | 36% | 1016.6 hPa | 0 mm | - | 130 W/m² | - |
| 1777844563 | 23.33° C | 37% | 1016.7 hPa | 0 mm | - | 176 W/m² | - |
| 1777844261 | 23.33° C | 40% | 1016.6 hPa | 0 mm | - | 265 W/m² | - |
| 1777843958 | 22.78° C | 38% | 1016.8 hPa | 0 mm | - | 124 W/m² | - |
| 1777843654 | 22.78° C | 39% | 1016.9 hPa | 0 mm | - | 45 W/m² | - |
| 1777843352 | 22.78° C | 40% | 1017 hPa | 0 mm | - | 97 W/m² | - |
| 1777843050 | 22.78° C | 39% | 1016.8 hPa | 0 mm | - | 312 W/m² | - |
| 1777842746 | 22.78° C | 38% | 1016.9 hPa | 0 mm | - | 322 W/m² | - |
| 1777842441 | 23.33° C | 37% | 1016.8 hPa | 0 mm | - | 373 W/m² | - |
| 1777842139 | 23.89° C | 39% | 1016.8 hPa | 0 mm | - | 219 W/m² | - |
| 1777841834 | 22.78° C | 37% | 1016.8 hPa | 0 mm | - | 230 W/m² | - |
| 1777841531 | 23.33° C | 37% | 1017.2 hPa | 0 mm | - | 402 W/m² | - |
| 1777841227 | 22.78° C | 39% | 1017 hPa | 0 mm | - | 347 W/m² | - |
| 1777840925 | 22.78° C | 37% | 1017.1 hPa | 0 mm | - | 417 W/m² | - |
| 1777840622 | 22.78° C | 39% | 1017.3 hPa | 0 mm | - | 538 W/m² | - |
| 1777840320 | 22.78° C | 38% | 1017.3 hPa | 0 mm | - | 478 W/m² | - |
| 1777840016 | 22.78° C | 38% | 1017.4 hPa | 0 mm | - | 449 W/m² | - |
| 1777839714 | 23.33° C | 36% | 1017.3 hPa | 0 mm | - | 477 W/m² | - |
| 1777839412 | 23.89° C | 38% | 1017.5 hPa | 0 mm | - | 544 W/m² | - |
* Rain latest hour (hover to see other rain measurements)
** Current wind speed in m/s (hover to see current wind gust speed)